| time (UTC) | temp F | wind direction | speed MPH | gust MPH | rain 1hr in | rain 24hr in | rain mn in | humidity % | barometer mb |
| 20260906203033 | 82 | 84 | 1.0 | 11.0 | 0.00 | 0.00 | 0.00 | 36 | 1013.0 |
| 20260906201538 | 82 | 287 | 0.0 | 3.0 | 0.00 | 0.00 | 0.00 | 37 | 1013.0 |
| 20260906200029 | 80 | 42 | 0.0 | 6.0 | 0.00 | 0.00 | 0.00 | 38 | 1013.2 |
| 20260906194527 | 80 | 134 | 0.0 | 4.0 | 0.00 | 0.00 | 0.00 | 40 | 1013.4 |
| 20260906193026 | 79 | 129 | 1.0 | 4.0 | 0.00 | 0.00 | 0.00 | 43 | 1013.5 |
| 20260906191523 | 78 | 63 | 0.0 | 5.0 | 0.00 | 0.00 | 0.00 | 40 | 1013.7 |
| 20260906190024 | 78 | 135 | 0.0 | 8.0 | 0.00 | 0.00 | 0.00 | 42 | 1013.7 |
| 20260906184531 | 77 | 148 | 1.0 | 6.0 | 0.00 | 0.00 | 0.00 | 41 | 1013.8 |
| 20260906183028 | 76 | 140 | 0.0 | 7.0 | 0.00 | 0.00 | 0.00 | 44 | 1013.9 |
| 20260906181521 | 76 | 148 | 0.0 | 2.0 | 0.00 | 0.00 | 0.00 | 47 | 1014.0 |
| 20260906180013 | 73 | 114 | 0.0 | 6.0 | 0.00 | 0.00 | 0.00 | 52 | 1014.1 |
| 20260906174511 | 72 | 105 | 0.0 | 4.0 | 0.00 | 0.00 | 0.00 | 52 | 1014.2 |
| 20260906173007 | 70 | 88 | 1.0 | 6.0 | 0.00 | 0.00 | 0.00 | 56 | 1014.2 |
| 20260906171506 | 70 | 140 | 1.0 | 9.0 | 0.00 | 0.00 | 0.00 | 57 | 1014.2 |
| 20260906170003 | 69 | 207 | 0.0 | 9.0 | 0.00 | 0.00 | 0.00 | 58 | 1014.2 |
| 20260906164502 | 68 | 150 | 3.0 | 7.0 | 0.00 | 0.00 | 0.00 | 57 | 1014.2 |
| 20260906163100 | 68 | 120 | 4.0 | 8.0 | 0.00 | 0.00 | 0.00 | 57 | 1014.2 |
| 20260906161558 | 67 | 127 | 2.0 | 6.0 | 0.00 | 0.00 | 0.00 | 59 | 1014.2 |
| 20260906160056 | 65 | 74 | 2.0 | 6.0 | 0.00 | 0.00 | 0.00 | 64 | 1014.3 |
| 20260906154553 | 64 | 139 | 0.0 | 2.0 | 0.00 | 0.00 | 0.00 | 67 | 1014.3 |
| 20260906153053 | 62 | 104 | 1.0 | 4.0 | 0.00 | 0.00 | 0.00 | 69 | 1014.2 |
| 20260906151558 | 61 | 103 | 1.0 | 5.0 | 0.00 | 0.00 | 0.00 | 70 | 1014.4 |
| 20260906150051 | 60 | 125 | 1.0 | 6.0 | 0.00 | 0.00 | 0.00 | 70 | 1014.4 |
| 20260906144549 | 59 | 103 | 0.0 | 2.0 | 0.00 | 0.00 | 0.00 | 71 | 1014.4 |
| 20260906143048 | 58 | 112 | 0.0 | 3.0 | 0.00 | 0.00 | 0.00 | 71 | 1014.2 |
| 20260906141546 | 58 | 111 | 2.0 | 5.0 | 0.00 | 0.00 | 0.00 | 72 | 1014.1 |
| 20260906140049 | 57 | 101 | 0.0 | 0.0 | 0.00 | 0.00 | 0.00 | 73 | 1013.8 |
| 20260906134544 | 57 | 127 | 0.0 | 0.0 | 0.00 | 0.00 | 0.00 | 73 | 1013.6 |
| 20260906133059 | 57 | 107 | 0.0 | 0.0 | 0.00 | 0.00 | 0.00 | 71 | 1013.7 |
| 20260906131540 | 57 | 107 | 0.0 | 0.0 | 0.00 | 0.00 | 0.00 | 72 | 1013.5 |
| 20260906130041 | 57 | 107 | 0.0 | 0.0 | 0.00 | 0.00 | 0.00 | 72 | 1013.4 |
| 20260906124535 | 58 | 108 | 0.0 | 0.0 | 0.00 | 0.00 | 0.00 | 70 | 1013.4 |
| 20260906123040 | 58 | 117 | 0.0 | 2.0 | 0.00 | 0.00 | 0.00 | 70 | 1013.4 |
| 20260906121534 | 58 | 90 | 0.0 | 0.0 | 0.00 | 0.00 | 0.00 | 69 | 1013.4 |
| 20260906120030 | 58 | 100 | 0.0 | 0.0 | 0.00 | 0.00 | 0.00 | 69 | 1013.3 |
| 20260906114630 | 58 | 99 | 0.0 | 0.0 | 0.00 | 0.00 | 0.00 | 69 | 1013.3 |
| 20260906113037 | 58 | 108 | 0.0 | 0.0 | 0.00 | 0.00 | 0.00 | 68 | 1013.2 |
| 20260906111525 | 58 | 91 | 0.0 | 0.0 | 0.00 | 0.00 | 0.00 | 67 | 1013.2 |
| 20260906110023 | 58 | 100 | 0.0 | 0.0 | 0.00 | 0.00 | 0.00 | 67 | 1013.1 |
| 20260906104521 | 59 | 106 | 0.0 | 0.0 | 0.00 | 0.00 | 0.00 | 66 | 1013.1 |
| 20260906103020 | 59 | 105 | 0.0 | 0.0 | 0.00 | 0.00 | 0.00 | 65 | 1013.1 |
| 20260906101518 | 60 | 115 | 0.0 | 3.0 | 0.00 | 0.00 | 0.00 | 64 | 1013.0 |
| 20260906100015 | 60 | 143 | 0.0 | 3.0 | 0.00 | 0.00 | 0.00 | 63 | 1013.0 |
| 20260906094513 | 60 | 155 | 1.0 | 4.0 | 0.00 | 0.00 | 0.00 | 62 | 1013.1 |
| 20260906093030 | 61 | 105 | 0.0 | 2.0 | 0.00 | 0.00 | 0.00 | 61 | 1013.1 |
| 20260906091509 | 62 | 129 | 0.0 | 2.0 | 0.00 | 0.00 | 0.00 | 59 | 1013.1 |
| 20260906090013 | 62 | 89 | 0.0 | 4.0 | 0.00 | 0.00 | 0.00 | 58 | 1013.1 |
| 20260906084507 | 62 | 103 | 0.0 | 0.0 | 0.00 | 0.00 | 0.00 | 59 | 1013.2 |
| 20260906083007 | 62 | 91 | 0.0 | 0.0 | 0.00 | 0.00 | 0.00 | 60 | 1013.3 |
| 20260906081502 | 61 | 91 | 0.0 | 0.0 | 0.00 | 0.00 | 0.00 | 60 | 1013.2 |
| 20260906080108 | 62 | 91 | 0.0 | 0.0 | 0.00 | 0.00 | 0.00 | 58 | 1013.3 |
| 20260906074600 | 63 | 91 | 0.0 | 0.0 | 0.00 | 0.00 | 0.00 | 56 | 1013.3 |
| 20260906073055 | 63 | 91 | 0.0 | 0.0 | 0.00 | 0.00 | 0.00 | 55 | 1013.3 |
| 20260906071551 | 65 | 91 | 0.0 | 0.0 | 0.00 | 0.00 | 0.00 | 54 | 1013.2 |
| 20260906070048 | 65 | 91 | 0.0 | 0.0 | 0.00 | 0.00 | 0.00 | 53 | 1013.3 |
| 20260906064548 | 66 | 80 | 0.0 | 1.0 | 0.00 | 0.00 | 0.00 | 54 | 1013.2 |
| 20260906063051 | 66 | 86 | 0.0 | 1.0 | 0.00 | 0.00 | 0.00 | 54 | 1013.4 |
| 20260906061551 | 67 | 91 | 0.0 | 1.0 | 0.00 | 0.00 | 0.00 | 53 | 1013.4 |
| 20260906060045 | 68 | 116 | 0.0 | 1.0 | 0.00 | 0.00 | 0.00 | 53 | 1013.4 |
| 20260906054547 | 68 | 113 | 0.0 | 0.0 | 0.00 | 0.00 | 0.00 | 53 | 1013.4 |
| 20260906053057 | 69 | 101 | 0.0 | 0.0 | 0.00 | 0.00 | 0.00 | 52 | 1013.4 |
| 20260906051545 | 70 | 117 | 0.0 | 0.0 | 0.00 | 0.00 | 0.00 | 51 | 1013.3 |
| 20260906050044 | 70 | 121 | 0.0 | 2.0 | 0.00 | 0.00 | 0.00 | 51 | 1013.2 |
| 20260906044543 | 70 | 143 | 0.0 | 1.0 | 0.00 | 0.00 | 0.00 | 53 | 1013.1 |
| 20260906043043 | 70 | 68 | 0.0 | 0.0 | 0.00 | 0.00 | 0.00 | 53 | 1013.0 |
| 20260906041551 | 71 | 68 | 0.0 | 1.0 | 0.00 | 0.00 | 0.00 | 50 | 1012.9 |
| 20260906040042 | 72 | 23 | 0.0 | 0.0 | 0.00 | 0.00 | 0.00 | 49 | 1012.7 |
| 20260906034544 | 73 | 24 | 0.0 | 0.0 | 0.00 | 0.00 | 0.00 | 46 | 1012.5 |
| 20260906033045 | 74 | 24 | 0.0 | 0.0 | 0.00 | 0.00 | 0.00 | 44 | 1012.4 |
| 20260906031642 | 75 | 276 | 0.0 | 0.0 | 0.00 | 0.00 | 0.00 | 41 | 1012.3 |
| 20260906030048 | 76 | 117 | 0.0 | 0.0 | 0.00 | 0.00 | 0.00 | 41 | 1012.2 |
| 20260906024546 | 77 | 134 | 0.0 | 0.0 | 0.00 | 0.00 | 0.00 | 39 | 1012.1 |
| 20260906023038 | 78 | 269 | 0.0 | 1.0 | 0.00 | 0.00 | 0.00 | 38 | 1012.1 |
| 20260906021537 | 79 | 41 | 0.0 | 3.0 | 0.00 | 0.00 | 0.00 | 37 | 1012.2 |
| 20260906020035 | 80 | 103 | 0.0 | 5.0 | 0.00 | 0.00 | 0.00 | 40 | 1012.3 |
| 20260906014545 | 81 | 79 | 0.0 | 5.0 | 0.00 | 0.00 | 0.00 | 40 | 1012.3 |
| 20260906013034 | 82 | 235 | 0.0 | 4.0 | 0.00 | 0.00 | 0.00 | 40 | 1012.2 |
| 20260906011539 | 83 | 131 | 0.0 | 3.0 | 0.00 | 0.00 | 0.00 | 38 | 1012.2 |
| 20260906010056 | 83 | 75 | 0.0 | 2.0 | 0.00 | 0.00 | 0.00 | 38 | 1012.4 |
| 20260906004529 | 83 | 120 | 0.0 | 2.0 | 0.00 | 0.00 | 0.00 | 38 | 1012.3 |
| 20260906003029 | 82 | 244 | 2.0 | 5.0 | 0.00 | 0.00 | 0.00 | 38 | 1012.3 |
| 20260906001541 | 83 | 289 | 0.0 | 3.0 | 0.00 | 0.00 | 0.00 | 38 | 1012.4 |
| 20260906000026 | 82 | 121 | 0.0 | 1.0 | 0.00 | 0.00 | 0.00 | 39 | 1012.4 |
| 20260905234526 | 82 | 300 | 1.0 | 4.0 | 0.00 | 0.00 | 0.00 | 38 | 1012.4 |
| 20260905233023 | 81 | 143 | 1.0 | 4.0 | 0.00 | 0.00 | 0.00 | 39 | 1012.5 |
| 20260905231535 | 82 | 253 | 0.0 | 1.0 | 0.00 | 0.00 | 0.00 | 38 | 1012.6 |
| 20260905230019 | 83 | 208 | 0.0 | 3.0 | 0.00 | 0.00 | 0.00 | 39 | 1012.7 |
| 20260905224520 | 80 | 286 | 1.0 | 7.0 | 0.00 | 0.00 | 0.00 | 40 | 1012.7 |
| 20260905223024 | 80 | 278 | 1.0 | 4.0 | 0.00 | 0.00 | 0.00 | 40 | 1013.0 |
| 20260905221512 | 79 | 121 | 0.0 | 3.0 | 0.00 | 0.00 | 0.00 | 39 | 1013.1 |
| 20260905220010 | 80 | 135 | 0.0 | 7.0 | 0.00 | 0.00 | 0.00 | 39 | 1013.3 |
| 20260905214509 | 81 | 250 | 0.0 | 5.0 | 0.00 | 0.00 | 0.00 | 39 | 1013.3 |
| 20260905213008 | 80 | 297 | 1.0 | 6.0 | 0.00 | 0.00 | 0.00 | 40 | 1013.4 |
| 20260905211513 | 80 | 114 | 1.0 | 4.0 | 0.00 | 0.00 | 0.00 | 40 | 1013.5 |
| 20260905210104 | 79 | 276 | 1.0 | 4.0 | 0.00 | 0.00 | 0.00 | 43 | 1013.6 |
| 20260905204602 | 77 | 295 | 1.0 | 6.0 | 0.00 | 0.00 | 0.00 | 43 | 1013.8 |